When you browse on this site, cookies collect data to enhance your experience and personalize the content and advertising you see.
Visit our Privacy Policy to learn more. By continuing to use the site, you agree to this use of cookies and data.
  • In Hungary
  • List of Countries
  • For 7 days
  • Water Temperature
  • Weather Map
  • News
  • Weather Widgets
  • user-avatar
    Login

    Hourly Weather Lienz

    Today, 10 December, Tuesday

    Time Temperature Precipitation Wind Pressure Humidity
    00:00 +1°C° 0.2 mm 2 mps 687 mmHg 89%
    01:00 -1°C° 0 mm 2 mps 688 mmHg 87%
    02:00 -1°C° 0.1 mm 2 mps 688 mmHg 87%
    03:00 -1°C° 0.1 mm 3 mps 689 mmHg 87%
    04:00 -1°C° 0.1 mm 3 mps 689 mmHg 87%
    05:00 -1°C° 0.2 mm 3 mps 690 mmHg 88%
    06:00 -1°C° 0.2 mm 3 mps 691 mmHg 88%
    07:00 -1°C° 0 mm 3 mps 692 mmHg 88%
    08:00 0°C° 0.2 mm 3 mps 693 mmHg 86%
    09:00 0°C° 0.2 mm 3 mps 694 mmHg 84%
    10:00 +1°C° 0.2 mm 3 mps 694 mmHg 82%
    11:00 +1°C° 0 mm 3 mps 695 mmHg 78%
    12:00 +1°C° 0 mm 3 mps 695 mmHg 74%
    13:00 0°C° 0 mm 4 mps 696 mmHg 70%
    14:00 -1°C° 0 mm 3 mps 696 mmHg 74%
    15:00 -2°C° 0 mm 3 mps 695 mmHg 79%
    16:00 -5°C° 0 mm 3 mps 695 mmHg 83%
    17:00 -6°C° 0 mm 3 mps 695 mmHg 81%
    18:00 -7°C° 0 mm 3 mps 695 mmHg 78%
    19:00 -8°C° 0 mm 3 mps 696 mmHg 76%
    20:00 -7°C° 0 mm 3 mps 696 mmHg 68%
    21:00 -6°C° 0 mm 2 mps 696 mmHg 60%
    22:00 -6°C° 0 mm 2 mps 696 mmHg 52%
    23:00 -5°C° 0 mm 2 mps 695 mmHg 47%

    Tomorrow, 11 December, Wednesday

    Time Temperature Precipitation Wind Pressure Humidity
    00:00 -4°C° 0 mm 2 mps 695 mmHg 42%
    01:00 -4°C° 0 mm 2 mps 695 mmHg 38%
    02:00 -4°C° 0 mm 2 mps 694 mmHg 37%
    03:00 -3°C° 0 mm 2 mps 693 mmHg 36%
    04:00 -3°C° 0 mm 2 mps 693 mmHg 35%
    05:00 -3°C° 0 mm 2 mps 692 mmHg 34%
    06:00 -2°C° 0 mm 2 mps 692 mmHg 34%
    07:00 -2°C° 0 mm 2 mps 692 mmHg 34%
    08:00 +2°C° 0 mm 1 mps 692 mmHg 38%
    09:00 +3°C° 0 mm 1 mps 691 mmHg 42%
    10:00 +5°C° 0 mm 1 mps 691 mmHg 45%
    11:00 +6°C° 0 mm 1 mps 691 mmHg 49%
    12:00 +6°C° 0 mm 0 mps 690 mmHg 53%
    13:00 +7°C° 0 mm 0 mps 689 mmHg 57%
    14:00 +5°C° 0 mm 0 mps 688 mmHg 57%
    15:00 +3°C° 0 mm 0 mps 688 mmHg 57%
    16:00 +2°C° 0 mm 0 mps 687 mmHg 58%
    17:00 +1°C° 0 mm 0 mps 686 mmHg 55%
    18:00 +1°C° 0 mm 1 mps 686 mmHg 53%
    19:00 +1°C° 0 mm 1 mps 686 mmHg 51%
    20:00 +1°C° 0 mm 1 mps 686 mmHg 50%
    21:00 0°C° 0 mm 1 mps 686 mmHg 49%
    22:00 0°C° 0 mm 1 mps 685 mmHg 48%
    23:00 0°C° 0 mm 1 mps 685 mmHg 50%

    Day after tomorrow, 12 December, Thursday

    Time Temperature Precipitation Wind Pressure Humidity
    00:00 -3°C° 0 mm 2 mps 685 mmHg 52%
    01:00 -3°C° 0 mm 2 mps 684 mmHg 54%
    02:00 -3°C° 0 mm 2 mps 684 mmHg 61%
    03:00 -3°C° 0 mm 2 mps 684 mmHg 67%
    04:00 -3°C° 0 mm 2 mps 683 mmHg 74%
    05:00 -2°C° 0.1 mm 2 mps 683 mmHg 77%
    06:00 -2°C° 0.1 mm 2 mps 684 mmHg 81%
    07:00 -2°C° 0.1 mm 2 mps 684 mmHg 84%
    08:00 -1°C° 0.4 mm 2 mps 684 mmHg 86%
    09:00 -1°C° 0.4 mm 2 mps 684 mmHg 87%
    10:00 +1°C° 0.4 mm 2 mps 684 mmHg 89%
    11:00 +1°C° 0.5 mm 2 mps 684 mmHg 88%
    12:00 +1°C° 0.5 mm 2 mps 684 mmHg 87%
    13:00 +2°C° 0.5 mm 1 mps 684 mmHg 85%
    14:00 +1°C° 0.1 mm 1 mps 684 mmHg 87%
    15:00 +1°C° 0.1 mm 1 mps 684 mmHg 88%
    16:00 0°C° 0.1 mm 1 mps 683 mmHg 90%
    17:00 -1°C° 0 mm 1 mps 683 mmHg 89%
    18:00 -3°C° 0 mm 0 mps 683 mmHg 89%
    19:00 -5°C° 0 mm 0 mps 683 mmHg 89%
    20:00 -4°C° 0 mm 1 mps 683 mmHg 91%
    21:00 -4°C° 0 mm 1 mps 682 mmHg 92%
    22:00 -4°C° 0 mm 1 mps 682 mmHg 93%
    23:00 -6°C° 0.1 mm 2 mps 681 mmHg 94%

    13 December, Friday

    Time Temperature Precipitation Wind Pressure Humidity
    00:00 -5°C° 0.1 mm 2 mps 680 mmHg 95%
    01:00 -5°C° 0.1 mm 2 mps 679 mmHg 96%
    02:00 -5°C° 0.1 mm 2 mps 678 mmHg 96%
    03:00 -5°C° 0.1 mm 2 mps 678 mmHg 96%
    04:00 -6°C° 0.1 mm 3 mps 677 mmHg 96%
    05:00 -6°C° 0 mm 3 mps 676 mmHg 96%
    06:00 -6°C° 0 mm 3 mps 675 mmHg 96%
    07:00 -6°C° 0 mm 3 mps 675 mmHg 96%
    08:00 -6°C° 0 mm 3 mps 674 mmHg 94%
    09:00 -4°C° 0 mm 2 mps 674 mmHg 93%
    10:00 -4°C° 0 mm 2 mps 674 mmHg 92%
    11:00 -3°C° 0.3 mm 2 mps 673 mmHg 91%
    12:00 -1°C° 0.3 mm 1 mps 672 mmHg 91%
    13:00 0°C° 0.3 mm 1 mps 672 mmHg 91%
    14:00 -2°C° 1.3 mm 2 mps 672 mmHg 92%
    15:00 -2°C° 1.3 mm 2 mps 671 mmHg 93%
    16:00 -2°C° 1.3 mm 3 mps 671 mmHg 94%
    17:00 -1°C° 1.3 mm 3 mps 672 mmHg 92%
    18:00 -1°C° 1.3 mm 3 mps 673 mmHg 91%
    19:00 -1°C° 1.3 mm 3 mps 673 mmHg 90%
    20:00 -1°C° 0.1 mm 3 mps 674 mmHg 89%
    21:00 -1°C° 0.1 mm 3 mps 675 mmHg 88%
    22:00 -2°C° 0.1 mm 3 mps 676 mmHg 88%
    23:00 -2°C° 0.1 mm 3 mps 676 mmHg 88%

    14 December, Saturday

    Time Temperature Precipitation Wind Pressure Humidity
    00:00 -2°C° 0.1 mm 3 mps 677 mmHg 88%
    01:00 -4°C° 0.1 mm 3 mps 678 mmHg 88%
    02:00 -4°C° 0 mm 3 mps 678 mmHg 87%
    03:00 -4°C° 0 mm 3 mps 679 mmHg 87%
    04:00 -3°C° 0 mm 2 mps 680 mmHg 86%
    05:00 -3°C° 0 mm 2 mps 680 mmHg 84%
    06:00 -4°C° 0 mm 2 mps 681 mmHg 81%
    07:00 -4°C° 0 mm 2 mps 681 mmHg 79%
    08:00 -2°C° 0 mm 2 mps 682 mmHg 77%
    09:00 +2°C° 0 mm 1 mps 683 mmHg 75%
    10:00 +4°C° 0 mm 1 mps 683 mmHg 73%
    11:00 +5°C° 0 mm 1 mps 684 mmHg 74%
    12:00 +6°C° 0 mm 1 mps 684 mmHg 74%
    13:00 +7°C° 0 mm 1 mps 684 mmHg 75%
    14:00 +6°C° 0 mm 1 mps 684 mmHg 76%
    15:00 +5°C° 0 mm 1 mps 684 mmHg 77%
    16:00 +4°C° 0 mm 1 mps 684 mmHg 78%
    17:00 +3°C° 0 mm 1 mps 685 mmHg 75%
    18:00 +3°C° 0 mm 1 mps 686 mmHg 73%
    19:00 +2°C° 0 mm 1 mps 686 mmHg 70%
    20:00 +2°C° 0 mm 1 mps 687 mmHg 69%
    21:00 +2°C° 0 mm 1 mps 687 mmHg 68%
    22:00 +2°C° 0 mm 1 mps 688 mmHg 66%
    23:00 +2°C° 0 mm 1 mps 688 mmHg 66%

    15 December, Sunday

    Time Temperature Precipitation Wind Pressure Humidity
    00:00 +2°C° 0 mm 1 mps 688 mmHg 66%
    01:00 +2°C° 0 mm 1 mps 688 mmHg 65%
    02:00 +2°C° 0 mm 1 mps 689 mmHg 65%
    03:00 +2°C° 0 mm 1 mps 689 mmHg 66%
    04:00 +2°C° 0 mm 1 mps 689 mmHg 66%
    05:00 +2°C° 0 mm 1 mps 689 mmHg 67%
    06:00 +1°C° 0 mm 1 mps 689 mmHg 69%
    07:00 +1°C° 0 mm 1 mps 689 mmHg 70%
    08:00 +2°C° 0 mm 1 mps 689 mmHg 72%
    09:00 +3°C° 0 mm 1 mps 690 mmHg 73%
    10:00 +3°C° 0 mm 2 mps 690 mmHg 75%
    11:00 +4°C° 0 mm 2 mps 690 mmHg 77%
    12:00 +5°C° 0 mm 2 mps 690 mmHg 80%
    13:00 +5°C° 0 mm 2 mps 690 mmHg 83%
    14:00 +4°C° 0 mm 2 mps 690 mmHg 86%
    15:00 +3°C° 0 mm 2 mps 690 mmHg 89%
    16:00 +3°C° 0 mm 1 mps 690 mmHg 92%
    17:00 +2°C° 0 mm 1 mps 690 mmHg 91%
    18:00 +2°C° 0 mm 1 mps 691 mmHg 91%
    19:00 +1°C° 0 mm 1 mps 691 mmHg 91%
    20:00 +1°C° 0 mm 1 mps 691 mmHg 91%
    21:00 +1°C° 0 mm 1 mps 691 mmHg 91%
    22:00 +1°C° 0 mm 1 mps 692 mmHg 91%
    23:00 +1°C° 0 mm 1 mps 692 mmHg 91%
    Show more